TimeMST,TemperatureF,Dew PointF,Humidity,Sea Level PressureIn,VisibilityMPH,Wind Direction,Wind SpeedMPH,Gust SpeedMPH,PrecipitationIn,Events,Conditions,WindDirDegrees,DateUTC
12:53 AM,18.0,9.0,68,30.11,10.0,WNW,13.8,-,N/A,,Clear,290,2013-01-05 07:53:00
1:53 AM,16.0,7.0,68,30.11,10.0,West,16.1,-,N/A,,Clear,280,2013-01-05 08:53:00
3:53 AM,14.0,5.0,67,30.15,10.0,WNW,19.6,-,N/A,,Clear,290,2013-01-05 10:53:00
4:53 AM,15.1,5.0,64,30.18,10.0,WNW,18.4,-,N/A,,Clear,300,2013-01-05 11:53:00
5:53 AM,17.1,7.0,65,30.21,10.0,NW,16.1,-,N/A,,Clear,310,2013-01-05 12:53:00
6:53 AM,12.9,5.0,71,30.28,10.0,WNW,16.1,-,N/A,,Clear,290,2013-01-05 13:53:00
7:53 AM,19.9,7.0,57,30.30,10.0,WNW,15.0,-,N/A,,Clear,300,2013-01-05 14:53:00
8:53 AM,24.1,10.0,55,30.31,10.0,NNW,13.8,-,N/A,,Clear,330,2013-01-05 15:53:00
9:53 AM,26.1,12.9,58,30.33,10.0,NW,10.4,-,N/A,,Clear,320,2013-01-05 16:53:00
10:53 AM,28.9,15.1,56,30.32,10.0,WNW,10.4,-,N/A,,Clear,300,2013-01-05 17:53:00
11:53 AM,30.9,18.0,59,30.31,10.0,WSW,5.8,-,N/A,,Clear,250,2013-01-05 18:53:00
12:53 PM,37.0,19.9,50,30.28,10.0,North,15.0,-,N/A,,Clear,350,2013-01-05 19:53:00
1:08 PM,37.4,21.2,52,30.18,10.0,North,15.0,-,N/A,,Clear,350,2013-01-05 20:08:00
1:53 PM,36.0,21.0,55,30.30,10.0,North,17.3,-,N/A,,Clear,350,2013-01-05 20:53:00
2:53 PM,36.0,21.0,55,30.33,10.0,North,10.4,-,N/A,,Clear,350,2013-01-05 21:53:00
3:53 PM,33.1,21.0,61,30.35,10.0,NNW,10.4,-,N/A,,Clear,340,2013-01-05 22:53:00
4:53 PM,30.0,17.1,59,30.37,10.0,NW,9.2,-,N/A,,Clear,320,2013-01-05 23:53:00
5:53 PM,27.0,15.1,61,30.39,10.0,NW,9.2,-,N/A,,Clear,310,2013-01-06 00:53:00
6:53 PM,21.9,9.0,58,30.44,10.0,West,11.5,-,N/A,,Clear,270,2013-01-06 01:53:00
7:53 PM,24.1,9.0,53,30.40,10.0,NW,12.7,-,N/A,,Clear,310,2013-01-06 02:53:00
8:53 PM,17.1,5.0,59,30.42,10.0,West,9.2,-,N/A,,Clear,270,2013-01-06 03:53:00
9:53 PM,17.1,5.0,59,30.43,10.0,West,9.2,-,N/A,,Clear,260,2013-01-06 04:53:00
10:53 PM,17.1,5.0,59,30.42,10.0,WSW,6.9,-,N/A,,Clear,240,2013-01-06 05:53:00
11:53 PM,19.9,7.0,57,30.38,10.0,SSW,9.2,-,N/A,,Clear,200,2013-01-06 06:53:00